Hourly Weather Cenon

Today, 25 June, Friday

Time Temperature Precipitation Wind Pressure Humidity
00:00 +13°C° 0 mm 1 mps 765 mmHg 78%
01:00 +13°C° 0 mm 1 mps 765 mmHg 79%
02:00 +11°C° 0 mm 0 mps 764 mmHg 79%
03:00 +11°C° 0 mm 0 mps 764 mmHg 80%
04:00 +12°C° 0 mm 0 mps 764 mmHg 79%
05:00 +13°C° 0 mm 0 mps 764 mmHg 77%
06:00 +14°C° 0 mm 0 mps 764 mmHg 75%
07:00 +16°C° 0 mm 0 mps 764 mmHg 69%
08:00 +20°C° 0 mm 1 mps 764 mmHg 62%
09:00 +21°C° 0 mm 1 mps 764 mmHg 56%
10:00 +23°C° 0 mm 1 mps 763 mmHg 52%
11:00 +24°C° 0 mm 1 mps 763 mmHg 47%
12:00 +25°C° 0 mm 1 mps 763 mmHg 43%
13:00 +25°C° 0 mm 2 mps 762 mmHg 43%
14:00 +26°C° 0 mm 2 mps 762 mmHg 43%
15:00 +26°C° 0 mm 3 mps 761 mmHg 43%
16:00 +25°C° 0 mm 3 mps 761 mmHg 48%
17:00 +24°C° 0 mm 3 mps 761 mmHg 53%
18:00 +22°C° 0 mm 3 mps 761 mmHg 58%
19:00 +20°C° 0 mm 3 mps 761 mmHg 66%
20:00 +18°C° 0 mm 2 mps 761 mmHg 74%
21:00 +16°C° 0 mm 2 mps 761 mmHg 82%
22:00 +15°C° 0 mm 2 mps 761 mmHg 83%
23:00 +15°C° 0 mm 1 mps 761 mmHg 84%

Tomorrow, 26 June, Saturday

Time Temperature Precipitation Wind Pressure Humidity
00:00 +15°C° 0 mm 1 mps 761 mmHg 85%
01:00 +14°C° 0 mm 1 mps 761 mmHg 86%
02:00 +13°C° 0 mm 0 mps 760 mmHg 87%
03:00 +13°C° 0 mm 0 mps 760 mmHg 88%
04:00 +13°C° 0 mm 0 mps 760 mmHg 85%
05:00 +14°C° 0 mm 0 mps 760 mmHg 81%
06:00 +16°C° 0 mm 1 mps 760 mmHg 78%
07:00 +19°C° 0 mm 1 mps 760 mmHg 72%
08:00 +21°C° 0 mm 1 mps 759 mmHg 66%
09:00 +22°C° 0 mm 1 mps 759 mmHg 60%
10:00 +24°C° 0 mm 1 mps 759 mmHg 56%
11:00 +25°C° 0 mm 2 mps 758 mmHg 53%
12:00 +27°C° 0 mm 2 mps 758 mmHg 49%
13:00 +27°C° 0 mm 2 mps 757 mmHg 49%
14:00 +28°C° 0 mm 2 mps 757 mmHg 49%
15:00 +28°C° 0 mm 2 mps 756 mmHg 49%
16:00 +27°C° 0.2 mm 2 mps 756 mmHg 57%
17:00 +25°C° 0.2 mm 2 mps 756 mmHg 66%
18:00 +24°C° 0.2 mm 2 mps 756 mmHg 74%
19:00 +21°C° 0.9 mm 2 mps 756 mmHg 80%
20:00 +19°C° 0.9 mm 2 mps 756 mmHg 87%
21:00 +17°C° 0.9 mm 2 mps 757 mmHg 94%
22:00 +17°C° 1 mm 2 mps 757 mmHg 94%
23:00 +17°C° 1 mm 2 mps 757 mmHg 95%

Day after tomorrow, 27 June, Sunday

Time Temperature Precipitation Wind Pressure Humidity
00:00 +18°C° 1 mm 1 mps 757 mmHg 96%
01:00 +18°C° 0.2 mm 1 mps 757 mmHg 96%
02:00 +18°C° 0.2 mm 1 mps 757 mmHg 96%
03:00 +18°C° 0.2 mm 1 mps 756 mmHg 96%
04:00 +18°C° 0 mm 1 mps 756 mmHg 95%
05:00 +18°C° 0 mm 1 mps 756 mmHg 94%
06:00 +19°C° 0 mm 1 mps 756 mmHg 93%
07:00 +19°C° 0.1 mm 1 mps 756 mmHg 90%
08:00 +20°C° 0.1 mm 1 mps 756 mmHg 88%
09:00 +19°C° 0.1 mm 2 mps 756 mmHg 85%
10:00 +19°C° 0.4 mm 3 mps 757 mmHg 87%
11:00 +18°C° 0.4 mm 3 mps 757 mmHg 89%
12:00 +17°C° 0.4 mm 4 mps 757 mmHg 92%
13:00 +15°C° 0.4 mm 4 mps 758 mmHg 92%
14:00 +16°C° 0.4 mm 3 mps 758 mmHg 93%
15:00 +15°C° 0.4 mm 2 mps 758 mmHg 93%
16:00 +15°C° 0.6 mm 2 mps 758 mmHg 93%
17:00 +15°C° 0.6 mm 2 mps 758 mmHg 93%
18:00 +15°C° 0.6 mm 2 mps 758 mmHg 93%
19:00 +14°C° 0 mm 2 mps 759 mmHg 93%
20:00 +13°C° 0 mm 2 mps 759 mmHg 93%
21:00 +13°C° 0 mm 2 mps 759 mmHg 94%
22:00 +13°C° 0 mm 2 mps 759 mmHg 94%
23:00 +13°C° 0 mm 2 mps 759 mmHg 94%

28 June, Monday

Time Temperature Precipitation Wind Pressure Humidity
00:00 +13°C° 0 mm 2 mps 759 mmHg 94%
01:00 +13°C° 0 mm 2 mps 759 mmHg 94%
02:00 +13°C° 0 mm 2 mps 759 mmHg 95%
03:00 +13°C° 0 mm 2 mps 758 mmHg 95%
04:00 +13°C° 1.3 mm 2 mps 758 mmHg 96%
05:00 +13°C° 1.3 mm 2 mps 758 mmHg 96%
06:00 +13°C° 1.3 mm 2 mps 758 mmHg 97%
07:00 +15°C° 0.2 mm 2 mps 758 mmHg 90%
08:00 +16°C° 0.2 mm 3 mps 758 mmHg 84%
09:00 +18°C° 0.2 mm 3 mps 758 mmHg 77%
10:00 +17°C° 1.5 mm 3 mps 759 mmHg 82%
11:00 +16°C° 1.5 mm 3 mps 759 mmHg 86%
12:00 +14°C° 1.5 mm 3 mps 759 mmHg 91%
13:00 +17°C° 0.2 mm 4 mps 759 mmHg 82%
14:00 +18°C° 0.2 mm 4 mps 759 mmHg 74%
15:00 +19°C° 0.2 mm 4 mps 758 mmHg 66%
16:00 +19°C° 0.3 mm 3 mps 758 mmHg 72%
17:00 +18°C° 0.3 mm 3 mps 759 mmHg 79%
18:00 +17°C° 0.3 mm 2 mps 759 mmHg 85%
19:00 +16°C° 0.1 mm 2 mps 759 mmHg 88%
20:00 +15°C° 0.1 mm 2 mps 759 mmHg 92%
21:00 +14°C° 0.1 mm 1 mps 760 mmHg 95%
22:00 +14°C° 0 mm 1 mps 760 mmHg 94%
23:00 +14°C° 0 mm 1 mps 760 mmHg 94%

29 June, Tuesday

Time Temperature Precipitation Wind Pressure Humidity
00:00 +14°C° 0 mm 1 mps 760 mmHg 93%
01:00 +13°C° 0 mm 1 mps 760 mmHg 93%
02:00 +13°C° 0 mm 1 mps 760 mmHg 93%
03:00 +12°C° 0 mm 0 mps 760 mmHg 92%
04:00 +13°C° 0 mm 1 mps 760 mmHg 90%
05:00 +14°C° 0 mm 1 mps 760 mmHg 89%
06:00 +15°C° 0 mm 1 mps 760 mmHg 87%
07:00 +18°C° 0 mm 1 mps 761 mmHg 77%
08:00 +18°C° 0 mm 2 mps 761 mmHg 68%
09:00 +20°C° 0 mm 2 mps 761 mmHg 58%
10:00 +21°C° 0 mm 3 mps 761 mmHg 55%
11:00 +22°C° 0 mm 4 mps 761 mmHg 52%
12:00 +23°C° 0 mm 4 mps 761 mmHg 49%
13:00 +23°C° 0 mm 4 mps 761 mmHg 51%
14:00 +23°C° 0 mm 5 mps 760 mmHg 53%
15:00 +23°C° 0 mm 5 mps 760 mmHg 55%
16:00 +22°C° 0.1 mm 5 mps 760 mmHg 63%
17:00 +20°C° 0.1 mm 4 mps 761 mmHg 71%
18:00 +19°C° 0.1 mm 4 mps 761 mmHg 79%
19:00 +19°C° 0.2 mm 4 mps 761 mmHg 83%
20:00 +18°C° 0.2 mm 3 mps 761 mmHg 87%
21:00 +17°C° 0.2 mm 3 mps 761 mmHg 92%
22:00 +17°C° 0 mm 3 mps 761 mmHg 91%
23:00 +17°C° 0 mm 3 mps 761 mmHg 90%

30 June, Wednesday

Time Temperature Precipitation Wind Pressure Humidity
00:00 +17°C° 0 mm 3 mps 761 mmHg 89%
01:00 +16°C° 0 mm 2 mps 761 mmHg 90%
02:00 +15°C° 0 mm 2 mps 761 mmHg 92%
03:00 +14°C° 0 mm 1 mps 761 mmHg 94%
04:00 +15°C° 0.2 mm 1 mps 761 mmHg 94%
05:00 +15°C° 0.2 mm 2 mps 761 mmHg 93%
06:00 +16°C° 0.2 mm 2 mps 761 mmHg 93%
07:00 +17°C° 0.9 mm 3 mps 761 mmHg 90%
08:00 +18°C° 0.9 mm 4 mps 761 mmHg 86%
09:00 +19°C° 0.9 mm 5 mps 761 mmHg 83%
10:00 +20°C° 0.4 mm 5 mps 761 mmHg 75%
11:00 +21°C° 0.4 mm 5 mps 761 mmHg 68%
12:00 +22°C° 0.4 mm 5 mps 761 mmHg 60%
13:00 +22°C° 0 mm 5 mps 761 mmHg 59%
14:00 +22°C° 0 mm 5 mps 761 mmHg 58%
15:00 +22°C° 0 mm 5 mps 761 mmHg 57%
16:00 +21°C° 0 mm 4 mps 761 mmHg 60%
17:00 +21°C° 0 mm 4 mps 761 mmHg 62%
18:00 +20°C° 0 mm 3 mps 762 mmHg 65%
19:00 +19°C° 0 mm 3 mps 762 mmHg 72%
20:00 +17°C° 0 mm 2 mps 763 mmHg 80%
21:00 +16°C° 0 mm 2 mps 763 mmHg 87%
22:00 +15°C° 0 mm 1 mps 763 mmHg 89%
23:00 +15°C° 0 mm 1 mps 763 mmHg 90%
Show more

We Need Your Consent

Meteoprog and our Service Providers may store and access personal data such as cookies, device identifiers or other similar technologies on your device and process such data to personalise content and ads, as well as provide social media features and to analyse the traffic.

  • Store and/or access information on your device

    Cookies, device identifiers or other information can be stored or accessed on your device for the purposes indicated above.

  • Personalised ads and content, ad and content measurement, audience insights, and products development

    Ads and content can be personalised based on a profile. More data can be added to better personalise ads and content. Ad and content performance can be measured. Insights about the audience who saw the ads and content can be derived. Such data can be used to develop or improve user’s experience, systems and software.

By clicking ‘I Agree’ you will allow the use of indicated cookies, device identifiers, web beacons or other similar technologies. Your settings can be changed in the browser on your device.

For certain purposes, legitimate interests may be relied on, rather than consent. You can read more about this in our Privacy and Cookie Policy.